Home   Weather   Majuro   Past weeks

Flag for Marshall Islands Past Weather in Majuro, Marshall Islands — Yesterday and Last 2 Weeks

Now
82 °F

Partly cloudy.


Feels Like: 88 °F
Forecast: 81 / 85 °F
Wind: 18 mph from Northeast

Location: Majuro Atoll

Current Time: Mar 1, 2017 at 2:37:00 am

Latest Report: Mar 1, 2017 at 1:55 am


Visibility: 15 mi

Pressure: 29.72 "Hg

Humidity: 77%

Dew Point: 74 °F

Location of MajuroLocation

Past Weather in Majuro — Graph

°F

Majuro Temperature Yesterday

Maximum temperature yesterday: 85 °F (at 8:52 am)
Minimum temperature yesterday: 78 °F (at 4:51 pm)
Average temperature yesterday: 82 °F

High & Low Weather Summary for the Past Weeks

 TemperatureHumidityPressure
High87 °F (Feb 17, 1:52 pm)93% (Feb 16, 3:52 pm)29.96 "Hg (Feb 16, 3:52 pm)
Low77 °F (Feb 16, 2:55 pm)64% (Feb 20, 10:55 am)29.70 "Hg (Feb 28, 3:54 pm)
Average83 °F78%29.84 "Hg
* Reported Feb 14 12:52 am — Mar 1 12:52 am, Majuro, Weather by CustomWeather, © 2017

Note: Actual official high and low records may vary slightly from our data, if they occured in-between our weather recording intervals... More about our weather records

Advertising

Majuro Weather History for the Previous 24 Hours

Scroll right to see more
 ConditionsComfort  
Time TempWeatherWind HumidityBarometerVisibility
12:52 am
Wed, Mar 1
82 °FPartly cloudy.17 mph77%29.75 "Hg15 mi
11:54 pm
Tue, Feb 28
82 °FPartly cloudy.16 mph79%29.76 "Hg15 mi
8:53 pm82 °FOvercast.21 mph83%29.76 "Hg15 mi
7:51 pm81 °FSprinkles. Overcast.14 mph86%29.74 "Hg10 mi
6:51 pm80 °FSprinkles. Cloudy.16 mph89%29.72 "Hg12 mi
5:51 pm79 °FRain showers. Cloudy.15 mph92%29.72 "Hg5 mi
4:51 pm78 °FSprinkles. Cloudy.15 mph93%29.72 "Hg10 mi
3:54 pm80 °FCloudy.18 mph87%29.70 "Hg15 mi
2:52 pm82 °FCloudy.14 mph84%29.72 "Hg15 mi
1:51 pm80 °FCloudy.15 mph86%29.74 "Hg15 mi
12:51 pm84 °FBroken clouds.13 mph79%29.77 "Hg15 mi
11:51 am80 °FMore clouds than sun.16 mph89%29.80 "Hg14 mi
10:54 am84 °FBroken clouds.14 mph77%29.80 "Hg15 mi
9:57 am84 °FBroken clouds.17 mph78%29.82 "Hg15 mi
8:52 am85 °FPartly sunny.8 mph76%29.81 "Hg15 mi
7:50 am83 °FPartly sunny.9 mph78%29.79 "Hg15 mi
6:50 am82 °FPassing clouds.17 mph80%29.78 "Hg15 mi
5:50 am82 °FPassing clouds.17 mph79%29.76 "Hg15 mi
4:52 am82 °FPassing clouds.13 mph81%29.75 "Hg15 mi
3:52 am82 °FPassing clouds.14 mph79%29.75 "Hg15 mi
2:54 am82 °FPartly cloudy.15 mph80%29.75 "Hg15 mi
Weather by CustomWeather, © 2017

See weather overviewHow to use our weather pages